This is the latest recevied weather packets stored in our database for station/object KE5QKR. If no packets are shown the sender has not sent any weather packets the latest 10 day(s).
| Time | Temp. | Humidity | Pressure | Rain* | Wind** | Luminosity | Snow |
|---|---|---|---|---|---|---|---|
| 1777521049 | 18.89° C | 99% | 1013.7 hPa | 0 mm | - | 0 W/m² | - |
| 1777520747 | 18.89° C | 99% | 1013.8 hPa | 0 mm | - | 0 W/m² | - |
| 1777520443 | 18.89° C | 99% | 1013.6 hPa | 1.27 mm | - | 0 W/m² | - |
| 1777520140 | 18.89° C | 99% | 1013.4 hPa | 1.27 mm | - | 0 W/m² | - |
| 1777519838 | 18.89° C | 99% | 1013.5 hPa | 0 mm | - | 0 W/m² | - |
| 1777519535 | 18.89° C | 99% | 1014 hPa | 0 mm | - | 0 W/m² | - |
| 1777519231 | 18.89° C | 99% | 1013 hPa | 0 mm | - | 0 W/m² | - |
| 1777518927 | 18.89° C | 99% | 1013.3 hPa | 0 mm | - | 0 W/m² | - |
| 1777518624 | 18.89° C | 99% | 1013.5 hPa | 1.78 mm | - | 0 W/m² | - |
| 1777518321 | 18.89° C | 99% | 1013.4 hPa | 1.78 mm | - | 0 W/m² | - |
| 1777518016 | 18.89° C | 99% | 1013 hPa | 0 mm | - | 0 W/m² | - |
| 1777517713 | 18.89° C | 99% | 1013.1 hPa | 1.78 mm | - | 0 W/m² | - |
| 1777517409 | 18.89° C | 99% | 1012.9 hPa | 1.78 mm | - | 0 W/m² | - |
| 1777517109 | 18.89° C | 99% | 1012.7 hPa | 1.27 mm | - | 0 W/m² | - |
| 1777516806 | 18.89° C | 99% | 1012.9 hPa | 1.27 mm | - | 0 W/m² | - |
| 1777516501 | 18.89° C | 99% | 1012.6 hPa | 0 mm | - | 0 W/m² | - |
| 1777516197 | 18.89° C | 99% | 1012.4 hPa | 0 mm | - | 0 W/m² | - |
| 1777515895 | 18.89° C | 99% | 1012.2 hPa | 0 mm | - | 0 W/m² | - |
| 1777515590 | 18.89° C | 99% | 1012.2 hPa | 0 mm | - | 0 W/m² | - |
| 1777515288 | 18.89° C | 99% | 1012 hPa | 0 mm | - | 0 W/m² | - |
| 1777514984 | 18.89° C | 99% | 1012 hPa | 0 mm | - | 0 W/m² | - |
| 1777514680 | 18.89° C | 99% | 1011.9 hPa | 0 mm | - | 0 W/m² | - |
| 1777514378 | 18.89° C | 99% | 1011.9 hPa | 0 mm | - | 0 W/m² | - |
| 1777514074 | 18.89° C | 99% | 1011.8 hPa | 0 mm | - | 0 W/m² | - |
| 1777513772 | 18.89° C | 99% | 1011.8 hPa | 0 mm | - | 0 W/m² | - |
* Rain latest hour (hover to see other rain measurements)
** Current wind speed in m/s (hover to see current wind gust speed)